Neijiang Gaoxin

operational
NORAD ID: 63985 Int'l Des: NNA 2025-100 Owner: GUOX/ZJLAB Country: CN
LEOCIRCULARRETROGRADESSO

About Neijiang Gaoxin

Description loading...

Live Position

Loading 3D Globe...

Upcoming Passes

Altitude History

Altitude vs Time

uPlot chart will show altitude changes over time

Two-Line Element Set

1 63985U 25100D 26062.02825428 .00014751 00000-0 47718-3 0 9994
2 63985 97.3753 138.7122 0005889 303.0432 57.0244 15.32144761 44594
Epoch: Mar 3, 2026 • Age: 24 hours

Current Status

Altitude 471.5 km
Velocity 7.63 km/s
Sub-Earth Point 21.23°N, 29.19°W
Launch Date May 14, 2025
Age 0.8 years
Type other

Technical Details

Classification Payload
Mass 50.00 kg
Dry Mass 50.00 kg
Total Mass 50.00 kg
Length 0.30 m
Diameter 0.30 m
Span 0.30 m
Shape Box + 2 pan
Manufacturer GUOX
Bus Type XSD
Phase Status In Orbit
Owner/State GUOX/ZJLAB/CN

Large Constellations

Loading constellations...